This demonstration page uses our WeatherBlox Daily Observations layout. Learn more.

Left ArrowRight Arrow

38.83388, -104.82136

Hourly Observations for April 19, 2022

Temp ( °F °C ) Dew Point ( °F °C ) Humidity (%) Winds ( mph kmh ) Pressure ( in mb ) Visibility ( mi km ) Precip ( " mm )
12:58 am 00:58 Clear 39 3.9 30 -1.1 70 70 W 5 7 29.71 1006 10 16 0.00 0.00
1:58 am 01:58 Clear 38 3.5 30 -0.9 73 73 W 6 9 29.66 1004 10 16 0.00 0.00
2:58 am 02:58 Clear 37 2.7 30 -1.3 75 75 Calm 29.61 1003 10 16 0.00 0.00
3:58 am 03:58 Mostly Clear 38 3.4 29 -1.6 70 70 Calm 29.60 1002 10 16 0.00 0.00
4:58 am 04:58 Cloudy 39 4 29 -1.6 67 67 Calm 29.60 1002 10 16 0.00 0.00
5:58 am 05:58 Cloudy 39 4 28 -2.2 64 64 ESE 6 9 29.59 1002 10 16 0.00 0.00
6:58 am 06:58 Cloudy 52 11.2 18 -7.6 26 26 E 7 11 29.62 1003 10 16 0.00 0.00
7:58 am 07:58 Mostly Sunny 58 14.4 15 -9.6 18 18 E 10 17 29.64 1004 10 16 0.00 0.00
8:58 am 08:58 undefined N/A N/A N/A ESE 8 13 N/A 10 16 0.00 0.00
9:58 am 09:58 Sunny 56 13.1 30 -1.3 37 37 NE 3 6 29.67 1005 10 16 0.00 0.00
10:58 am 10:58 Sunny 58 14.7 30 -1 34 34 E 8 13 29.63 1003 10 16 0.00 0.00
11:58 am 11:58 Partly Cloudy 64 17.9 21 -6.1 19 19 WNW 5 7 29.64 1004 10 16 0.00 0.00
12:58 pm 12:58 Sunny 71 21.5 17 -8.1 13 13 NNW 5 7 29.60 1002 10 16 0.00 0.00
1:58 pm 13:58 Mostly Sunny 72 22.4 15 -9.5 11 11 NE 6 9 29.62 1003 10 16 0.00 0.00
2:58 pm 14:58 Mostly Sunny 73 22.6 11 -11.9 9 9 N 5 7 29.65 1004 10 16 0.00 0.00
3:58 pm 15:58 Mostly Cloudy 73 22.9 11 -11.7 9 9 ENE 8 13 29.57 1001 10 16 0.00 0.00
4:39 pm 16:39 Mostly Sunny 72 22 12 -11 10 10 ESE 13 20 29.53 1000 10 16 0.00 0.00
4:58 pm 16:58 Sunny 72 22.1 10 -12.3 9 9 NE 10 17 29.55 1001 10 16 0.00 0.00
5:58 pm 17:58 Sunny 69 20.7 12 -10.9 11 11 E 3 6 29.49 999 10 16 0.00 0.00
6:58 pm 18:58 Sunny 68 20.1 14 -10.2 12 12 SW 6 9 29.44 997 10 16 0.00 0.00
7:58 pm 19:58 Partly Cloudy 65 18.5 13 -10.5 13 13 Calm 29.39 995 10 16 0.00 0.00
8:58 pm 20:58 undefined 62 16.6 15 -9.4 16 16 WSW 3 6 29.38 995 10 16 0.00 0.00
9:58 pm 21:58 Clear 60 15.5 16 -8.7 18 18 SSE 3 6 29.38 995 10 16 0.00 0.00
11:58 pm 23:58 Clear 61 16 16 -9.1 17 17 Calm 29.34 993 10 16 0.00 0.00

Powered by AerisWeather